Location: Ajisawe
(8.4333°N, 4.3833°E)
Time: 01:13:24
(UTC+00:00)

Courier 1B Rocket - Pass Details

Date: 24 April 2021
Orbit: 920 x 1202 km, 28.3° (Epoch: 13 May)

Event Time Altitude Azimuth Distance (km) Brightness Sun altitude
Rises 16:39:04 0° 275° (W) 3,544 9.7 16.8°
Reaches altitude 10° 16:42:11 10° 289° (WNW) 2,607 9.8 16.0°
Maximum altitude 16:47:06 24° 341° (NNW) 1,830 7.0 14.8°
Drops below altitude 10° 16:52:11 10° 33° (NNE) 2,687 7.1 13.6°
Sets 16:55:26 0° 47° (NE) 3,677 7.7 12.8°
